TimeCDT,TemperatureF,Dew PointF,Humidity,Sea Level PressureIn,VisibilityMPH,Wind Direction,Wind SpeedMPH,Gust SpeedMPH,PrecipitationIn,Events,Conditions,WindDirDegrees,DateUTC
12:54 AM,46.0,37.0,71,30.29,6.0,West,5.8,-,N/A,,Haze,280,2013-10-13 05:54:00
1:54 AM,46.0,37.0,71,30.31,8.0,WNW,4.6,-,N/A,,Clear,300,2013-10-13 06:54:00
2:54 AM,45.0,37.0,74,30.32,10.0,NW,3.5,-,N/A,,Clear,320,2013-10-13 07:54:00
3:54 AM,44.1,34.0,68,30.32,10.0,NNW,4.6,-,N/A,,Clear,330,2013-10-13 08:54:00
4:54 AM,43.0,33.1,68,30.35,10.0,NNW,6.9,-,N/A,,Clear,330,2013-10-13 09:54:00
5:54 AM,43.0,32.0,65,30.36,10.0,North,4.6,-,N/A,,Clear,360,2013-10-13 10:54:00
6:54 AM,41.0,33.1,73,30.38,10.0,NW,3.5,-,N/A,,Clear,320,2013-10-13 11:54:00
7:54 AM,41.0,33.1,73,30.41,10.0,Calm,Calm,-,N/A,,Clear,0,2013-10-13 12:54:00
8:54 AM,45.0,37.0,74,30.44,10.0,Calm,Calm,-,N/A,,Clear,0,2013-10-13 13:54:00
9:54 AM,52.0,36.0,54,30.45,10.0,NNE,3.5,-,N/A,,Clear,30,2013-10-13 14:54:00
10:54 AM,57.9,36.0,44,30.46,10.0,ENE,5.8,-,N/A,,Clear,60,2013-10-13 15:54:00
11:54 AM,61.0,34.0,36,30.45,10.0,East,5.8,-,N/A,,Clear,90,2013-10-13 16:54:00
12:54 PM,63.0,35.1,35,30.42,10.0,Variable,3.5,-,N/A,,Clear,0,2013-10-13 17:54:00
1:54 PM,64.9,33.1,31,30.40,10.0,Calm,Calm,-,N/A,,Clear,0,2013-10-13 18:54:00
2:54 PM,66.9,33.1,28,30.39,10.0,Calm,Calm,-,N/A,,Clear,0,2013-10-13 19:54:00
3:54 PM,66.0,34.0,30,30.38,10.0,Variable,3.5,-,N/A,,Clear,0,2013-10-13 20:54:00
4:54 PM,66.9,35.1,31,30.36,10.0,Variable,3.5,-,N/A,,Clear,0,2013-10-13 21:54:00
5:54 PM,64.0,34.0,33,30.35,10.0,ESE,4.6,-,N/A,,Clear,110,2013-10-13 22:54:00
6:54 PM,60.1,36.0,41,30.36,10.0,ESE,4.6,-,N/A,,Clear,120,2013-10-13 23:54:00
7:54 PM,59.0,37.0,44,30.37,10.0,East,3.5,-,N/A,,Clear,100,2013-10-14 00:54:00
8:54 PM,54.0,37.0,53,30.38,10.0,Calm,Calm,-,N/A,,Clear,0,2013-10-14 01:54:00
9:54 PM,53.1,37.9,57,30.38,10.0,East,4.6,-,N/A,,Clear,90,2013-10-14 02:54:00
10:54 PM,53.1,36.0,52,30.37,10.0,East,5.8,-,N/A,,Clear,100,2013-10-14 03:54:00
11:54 PM,52.0,35.1,53,30.36,10.0,East,4.6,-,N/A,,Clear,100,2013-10-14 04:54:00